Location: Unspecified
(0.0000°N, 0.0000°E)
Time: 18:43:59
(UTC+00:00)

Hubble Space Telescope - Pass Details

Date: 20 October 2021
Orbit: 535 x 538 km, 28.5° (Epoch: 23 October)

Event Time Altitude Azimuth Distance (km) Brightness Sun altitude
Rises 18:22:52 0° 230° (SW) 2,666 5.5 -9.4°
Reaches altitude 10° 18:25:12 10° 223° (SW) 1,775 4.3 -9.9°
Maximum altitude 18:29:08 45° 150° (SSE) 732 1.3 -10.9°
Enters shadow 18:32:00 17° 83° (E) 1,386 2.2 -11.6°
